This is the latest recevied weather packets stored in our database for station/object W4SNA-3. If no packets are shown the sender has not sent any weather packets the latest 10 day(s).
| Time | Temp. | Humidity | Pressure | Rain* | Wind** | Luminosity | Snow |
|---|---|---|---|---|---|---|---|
| 1788549861 | 31.11° C | 65% | 1018.3 hPa | 0 mm | - | - | - |
| 1788549283 | 31.11° C | 64% | 1018.3 hPa | 0 mm | - | - | - |
| 1788548983 | 31.11° C | 65% | 1018.4 hPa | 0 mm | - | - | - |
| 1788548696 | 31.11° C | 63% | 1018.5 hPa | 0 mm | - | - | - |
| 1788548406 | 31.67° C | 62% | 1018.6 hPa | 0 mm | - | - | - |
| 1788548083 | 31.67° C | 61% | 1018.7 hPa | 0 mm | - | - | - |
| 1788547783 | 32.22° C | 61% | 1018.8 hPa | 0 mm | - | - | - |
| 1788547483 | 32.22° C | 62% | 1018.7 hPa | 0 mm | - | - | - |
| 1788547183 | 32.22° C | 60% | 1018.9 hPa | 0 mm | - | - | - |
| 1788546883 | 32.22° C | 65% | 1018.9 hPa | 0 mm | - | - | - |
| 1788546590 | 32.22° C | 61% | 1018.9 hPa | 0 mm | - | - | - |
| 1788546283 | 32.22° C | 61% | 1018.9 hPa | 0 mm | - | - | - |
| 1788546024 | 32.22° C | 62% | 1019.2 hPa | 0 mm | - | - | - |
| 1788545715 | 32.22° C | 62% | 1019.3 hPa | 0 mm | - | - | - |
| 1788545310 | 32.22° C | 62% | 1019.4 hPa | 0 mm | - | - | - |
| 1788545015 | 32.22° C | 61% | 1019.4 hPa | 0 mm | - | - | - |
| 1788544712 | 32.22° C | 60% | 1019.6 hPa | 0 mm | - | - | - |
| 1788544418 | 32.22° C | 60% | 1019.5 hPa | 0 mm | - | - | - |
| 1788544110 | 32.78° C | 61% | 1019.5 hPa | 0 mm | - | - | - |
| 1788543423 | 32.78° C | 59% | 1019.7 hPa | 0 mm | - | - | - |
| 1788543124 | 32.78° C | 59% | 1019.6 hPa | 0 mm | - | - | - |
| 1788542551 | 32.78° C | 59% | 1019.8 hPa | 0 mm | - | - | - |
| 1788542251 | 32.78° C | 57% | 1019.9 hPa | 0 mm | - | - | - |
| 1788541960 | 32.78° C | 58% | 1019.9 hPa | 0 mm | - | - | - |
| 1788541651 | 33.33° C | 57% | 1019.8 hPa | 0 mm | - | - | - |
* Rain latest hour (hover to see other rain measurements)
** Current wind speed in m/s (hover to see current wind gust speed)